[[{"header":{"parameterUnit":"m.s-1","parameterCategory":1,"la1":30.2991,"la2":30.254,"lo1":-89.0895,"lo2":-89.0444,"dy":0.0017,"dx":0.0017,"nx":28,"ny":28,"refTime":"2023-08-10T09:00:00:Z","depth":0,"parameterNumber":2,"parameterNumberName":"U-component_of_WINDS"},"data":[0,0,0,0,0,0,0,0,0,0,0,0,0,0,0,0,0,0,0,0,0,0,0,0,0,0,0,0,0,0,0,0,0,0,0,0,0,0,0,0,0,0,0,0,0,0,0,0,0,0,0,0,0,0,0,0,0,0,3.9506,3.9506,0,3.9567,3.9568,3.9568,3.9459,3.9456,3.9452,3.9449,3.9514,3.9519,3.9524,0,0,0,0,0,0,0,0,0,0,0,0,0,3.9295,3.93,3.9506,3.9507,3.9507,3.9567,3.9568,3.9569,3.946,3.9456,3.9451,3.9447,3.9512,3.9518,3.9524,0,0,0,0,0,0,0,0,0,0,0,0,0,3.9375,3.9301,3.9506,3.946,3.9457,3.9567,3.9568,3.9569,3.9461,3.9456,3.945,3.9445,3.951,3.9518,3.9525,3.9683,0,0,3.9549,3.9552,0,0,0,0,0,0,0,0,3.937,3.9383,3.9466,3.9464,3.946,3.95,3.9517,3.9607,3.9462,3.946,3.9449,3.9442,3.9514,3.9521,3.9545,3.9686,3.9689,3.955,3.9554,3.9558,3.956,0,0,0,0,0,0,0,3.9365,3.9379,3.953,3.9468,3.9464,3.9437,3.9442,3.9534,3.9517,3.9459,3.9452,3.946,3.9511,3.9537,3.9545,3.969,3.9549,3.9556,3.9561,3.9564,3.996,3.9966,0,0,0,0,0,0,3.9365,3.9375,3.9528,3.9532,3.9401,3.9445,3.9451,3.9493,3.9516,3.9514,3.9465,3.9455,3.9527,3.9536,3.9547,3.9731,3.9558,3.9565,3.9569,3.9955,3.9962,3.9968,0,0,0,0,0,0,3.9361,3.938,3.9526,3.9452,3.9468,3.9455,3.9502,3.9497,3.9523,3.952,3.9516,3.9495,3.9523,3.9536,3.9649,3.9731,3.9568,3.9575,3.9948,3.9957,3.9965,4.0101,0,0,0,0,0,0,3.9355,3.9379,3.9439,3.9454,3.9472,3.9627,3.9507,3.9502,3.9536,3.9524,3.9547,3.9545,3.952,3.9638,3.9657,3.9739,3.9581,3.994,3.9952,3.9962,4.0089,4.0113,4.0134,0,0,0,0,0,3.9348,3.9476,3.9442,3.9461,3.9547,3.9632,3.9642,3.961,3.9543,3.9603,3.96,3.9545,3.972,3.9651,3.9671,3.9757,3.9935,3.9948,3.9961,4.0079,4.0108,4.0133,0,0,0,0,0,0,3.9472,3.9477,3.944,3.9576,3.9604,3.9613,3.9687,3.9643,3.9691,3.9677,3.9635,3.9641,3.9762,3.9771,3.9694,3.9909,3.9816,3.9834,3.9898,3.9927,3.9949,3.9943,3.9588,0,0,0,0,0,3.9515,3.9583,3.9584,3.9704,3.972,3.9702,3.9737,3.9709,3.9737,3.9749,3.9755,3.9784,3.9845,3.9887,3.9943,4.009,4.0092,4.0159,4.0181,4.02,4.0215,4.0291,4.0319,4.0012,4.0012,4.0011,0,0,3.9605,3.9616,3.9662,3.9729,3.9747,3.9818,3.9712,3.9793,3.9845,3.9761,3.9867,3.9873,3.9903,4.0032,4.009,4.0043,4.0301,4.0217,4.0232,4.0237,4.0307,4.0336,4.0362,4.0021,4.0019,4.0018,0,0,3.9803,3.982,3.992,3.994,3.9969,3.9956,3.998,3.9996,3.9996,4.0101,4.0039,4.0101,4.0208,4.0231,4.0257,4.0463,4.0412,4.0483,4.06,4.0674,4.0698,4.0719,4.079,4.0816,4.0498,4.0499,4.0499,0,3.9911,4.0015,3.9978,4.0061,4.0092,4.0018,4.0119,4.0141,4.0187,4.021,4.0157,4.0288,4.0304,4.0436,4.0486,4.051,4.0535,4.0479,4.0697,4.0718,4.0738,4.0805,4.0832,4.0507,4.0506,4.0505,4.0504,0,4.0145,4.0219,4.0296,4.0341,4.038,4.0473,4.0448,4.0493,4.0461,4.0454,4.0561,4.0576,4.0633,4.0663,4.0634,4.0791,4.0761,4.0704,4.061,4.0776,4.0838,4.0863,4.0518,4.0516,4.0513,4.0511,0,0,4.0424,4.0445,4.0474,4.0492,4.0518,4.0573,4.0662,4.0716,4.0754,4.0789,4.086,4.0952,4.0898,4.0928,4.0901,4.0966,4.1125,4.09,4.09,4.0939,4.1295,4.1337,4.1367,4.1092,4.1097,4.1101,4.1292,0,4.0619,4.077,4.0737,4.0885,4.0951,4.0882,4.0958,4.0982,4.0977,4.1032,4.1027,4.1091,4.1017,4.1034,4.1095,4.1092,4.1195,4.1078,4.1157,4.116,4.1149,4.14,4.1444,4.1624,4.1316,4.1321,4.1324,0,4.0867,4.0909,4.1063,4.1075,4.1102,4.1171,4.1217,4.1271,4.1297,4.1288,4.132,4.128,4.1366,4.1273,4.139,4.1311,4.1342,4.1345,4.1351,4.1356,4.125,4.1409,4.1681,4.1707,4.1362,4.1359,4.1356,0,4.1051,4.1146,4.125,4.1268,4.1286,4.1336,4.1346,4.1366,4.14,4.1441,4.1462,4.1513,4.154,4.1581,4.1555,4.1489,4.1676,4.1581,4.167,4.1671,4.1712,4.1709,4.199,4.1736,4.1735,4.1735,4.1734,0,4.1271,4.1367,4.1332,4.1396,4.1501,4.1463,4.1569,4.1571,4.1589,4.1651,4.1595,4.1655,4.1618,4.1675,4.1656,4.1755,4.1768,4.1763,4.1756,4.1767,4.1767,4.1784,4.177,4.1742,4.174,4.1739,4.1738,0,4.1494,4.1474,4.1582,4.159,4.1594,4.1671,4.1678,4.1736,4.1727,4.1806,4.1823,4.1808,4.1872,4.185,4.192,4.1906,4.2031,4.201,4.2022,4.2016,4.2106,4.2097,4.2406,4.2444,4.2168,4.217,4.2173,0,4.1634,4.1706,4.1721,4.1758,4.1772,4.1833,4.1867,4.1832,4.187,4.1903,4.1957,4.2016,4.206,4.2165,4.2161,4.2213,4.219,4.2295,4.2198,4.2205,4.2189,4.2184,4.2189,4.2314,4.2317,4.232,4.2322,0,4.1885,4.1871,4.1921,4.1969,4.201,4.2046,4.2076,4.211,4.2077,4.2122,4.2186,4.222,4.2289,4.2347,4.2394,4.2404,4.2357,4.2353,4.2376,4.2386,4.2389,4.2386,4.2073,4.2346,4.2343,4.2342,4.234,4.2339,4.2068,4.2128,4.2147,4.2205,4.2224,4.2254,4.2308,4.2305,4.2357,4.2409,4.2386,4.2459,4.2481,4.2538,4.2555,4.2611,4.257,4.2604,4.2612,4.2621,4.2631,4.2382,4.262,4.2619,4.2618,4.2618,4.2617,0,4.2313,4.2322,4.2375,4.2419,4.2464,4.2416,4.2447,4.2488,4.2552,4.2576,4.2621,4.2693,4.2748,4.2748,4.2799,4.2844,4.2824,4.2859,4.2854,4.2856,4.2666,4.2639,4.2874,4.2874,4.2874,4.2874,4.2874,4.2874,4.2446,4.2543,4.2532,4.2638,4.2646,4.2716,4.2737,4.2764,4.2782,4.2865,4.291,4.2909,4.2923,4.2975,4.3023,4.3021,4.3042,4.3084,4.3074,4.2896,4.287,4.2846,4.2821,4.309,4.309,4.326,4.3261,4.3263]},{"header":{"parameterUnit":"m.s-1","parameterCategory":1,"la1":30.2991,"la2":30.254,"lo1":-89.0895,"lo2":-89.0444,"dy":0.0017,"dx":0.0017,"nx":28,"ny":28,"refTime":"2023-08-10T09:00:00:Z","depth":0,"parameterNumber":3,"parameterNumberName":"V-component_of_WINDS"},"data":[0,0,0,0,0,0,0,0,0,0,0,0,0,0,0,0,0,0,0,0,0,0,0,0,0,0,0,0,0,0,0,0,0,0,0,0,0,0,0,0,0,0,0,0,0,0,0,0,0,0,0,0,0,0,0,0,0,0,5.7706,5.7708,0,5.7886,5.7888,5.789,5.7882,5.788,5.7877,5.7875,5.8054,5.806,5.8067,0,0,0,0,0,0,0,0,0,0,0,0,0,5.735,5.7356,5.7706,5.7708,5.7711,5.7885,5.7888,5.789,5.7883,5.788,5.7877,5.7874,5.8051,5.806,5.8068,0,0,0,0,0,0,0,0,0,0,0,0,0,5.7514,5.7359,5.7706,5.7728,5.7732,5.7885,5.7888,5.7891,5.7883,5.788,5.7876,5.7872,5.8048,5.8059,5.8069,5.821,0,0,5.8102,5.8106,0,0,0,0,0,0,0,0,5.7505,5.7527,5.7723,5.7727,5.7731,5.7858,5.7828,5.7998,5.7884,5.7826,5.7875,5.787,5.7991,5.8006,5.8048,5.8219,5.8226,5.8103,5.8109,5.8114,5.8117,0,0,0,0,0,0,0,5.7494,5.752,5.7777,5.7725,5.7731,5.7727,5.7746,5.786,5.7927,5.7831,5.783,5.7852,5.7993,5.8038,5.8052,5.8229,5.8102,5.8112,5.8118,5.8123,5.852,5.8524,0,0,0,0,0,0,5.7478,5.751,5.7771,5.7782,5.7607,5.7736,5.7758,5.7821,5.7926,5.7938,5.7855,5.7851,5.8021,5.804,5.8058,5.8228,5.8114,5.8124,5.813,5.8516,5.8521,5.8525,0,0,0,0,0,0,5.7471,5.7502,5.7764,5.7646,5.768,5.7746,5.7817,5.7827,5.7872,5.7945,5.7956,5.7889,5.8019,5.8043,5.8172,5.8234,5.8128,5.8138,5.8511,5.8517,5.8523,5.8569,0,0,0,0,0,0,5.7461,5.7499,5.7555,5.7648,5.7686,5.7877,5.7821,5.7833,5.7891,5.7887,5.798,5.7991,5.8018,5.8156,5.8183,5.8247,5.8146,5.8506,5.8514,5.8521,5.8562,5.8576,5.8588,0,0,0,0,0,5.7448,5.7561,5.7558,5.759,5.7758,5.7881,5.7902,5.7933,5.7896,5.7951,5.7997,5.7988,5.8223,5.8169,5.8199,5.8267,5.8502,5.8511,5.8521,5.8557,5.8574,5.8588,0,0,0,0,0,0,5.7473,5.7574,5.7572,5.7719,5.7791,5.7879,5.7951,5.795,5.8034,5.8027,5.8059,5.8079,5.8208,5.8251,5.8189,5.8407,5.8357,5.8373,5.8375,5.8391,5.8404,5.839,5.8155,0,0,0,0,0,5.7496,5.7589,5.7671,5.7793,5.783,5.7884,5.7939,5.7955,5.8031,5.8062,5.8117,5.819,5.8279,5.8338,5.8425,5.8569,5.8587,5.863,5.8643,5.8653,5.8665,5.8741,5.876,5.8556,5.8556,5.8556,0,0,5.7544,5.761,5.7667,5.7799,5.7858,5.7951,5.791,5.8011,5.808,5.8076,5.8201,5.8244,5.8327,5.8463,5.8525,5.8502,5.8726,5.8665,5.8672,5.868,5.8753,5.8772,5.8789,5.8562,5.8561,5.856,0,0,5.7678,5.7739,5.7845,5.7904,5.7993,5.8028,5.8054,5.8142,5.8171,5.8297,5.8295,5.8376,5.8531,5.8589,5.8638,5.8791,5.8784,5.8818,5.8885,5.8958,5.8974,5.8988,5.904,5.9059,5.8831,5.8831,5.8831,0,5.7726,5.7869,5.79,5.8001,5.8058,5.806,5.8166,5.8221,5.8333,5.8371,5.8344,5.8536,5.8592,5.874,5.8777,5.8818,5.8846,5.8808,5.897,5.8984,5.8998,5.9048,5.9067,5.8835,5.8834,5.8834,5.8834,0,5.7921,5.8019,5.8094,5.8203,5.8268,5.8372,5.8416,5.8478,5.8488,5.8525,5.865,5.8717,5.8816,5.8853,5.8864,5.9001,5.8984,5.8963,5.8913,5.902,5.9067,5.9087,5.8839,5.8838,5.8837,5.8836,0,0,5.8077,5.82,5.8227,5.8275,5.8372,5.8448,5.8549,5.8647,5.8698,5.8774,5.8858,5.8988,5.8968,5.9025,5.9042,5.9107,5.9219,5.9077,5.908,5.9099,5.9371,5.9384,5.9406,5.9216,5.922,5.9223,5.9363,0,5.8219,5.8402,5.8431,5.859,5.8679,5.8681,5.8769,5.8836,5.8873,5.8952,5.8991,5.9082,5.9051,5.9084,5.9149,5.9192,5.9274,5.9183,5.9291,5.9294,5.9269,5.9431,5.9446,5.9575,5.9381,5.9385,5.9387,0,5.841,5.8492,5.866,5.8742,5.878,5.8859,5.8949,5.9026,5.9101,5.9123,5.9184,5.9193,5.9295,5.9242,5.9381,5.9318,5.9364,5.9392,5.9397,5.9407,5.9346,5.9443,5.9618,5.9636,5.9417,5.9414,5.9412,0,5.8503,5.8656,5.8775,5.8816,5.8916,5.897,5.9014,5.9086,5.9141,5.9219,5.9255,5.9344,5.9392,5.9458,5.9489,5.9448,5.9625,5.9575,5.9643,5.9643,5.968,5.9677,5.9862,5.9713,5.9712,5.9712,5.9712,0,5.8658,5.876,5.8818,5.8891,5.9004,5.9036,5.9146,5.9187,5.9251,5.9329,5.9336,5.941,5.9448,5.9526,5.9551,5.966,5.9682,5.97,5.9705,5.9699,5.9696,5.9728,5.9719,5.9717,5.9716,5.9715,5.9714,0,5.8781,5.8825,5.8954,5.9037,5.906,5.914,5.9209,5.9279,5.9314,5.9414,5.9439,5.9494,5.9586,5.9624,5.9737,5.9753,5.9878,5.9877,5.9853,5.9854,5.9919,5.9911,6.013,6.0159,5.9992,5.9994,5.9995,0,5.8876,5.8955,5.9046,5.91,5.9145,5.9233,5.9289,5.9322,5.9381,5.947,5.9528,5.962,5.9696,5.9843,5.9891,5.9976,5.9976,6.0047,5.9989,5.9979,5.9974,5.9968,5.9974,6.0057,6.0058,6.006,6.0061,0,5.9039,5.9056,5.9139,5.9228,5.9296,5.9367,5.9437,5.948,5.9524,5.9588,5.9683,5.9742,5.9857,5.9947,6.0035,6.0077,6.0075,6.0079,6.0099,6.0092,6.0074,6.0081,5.9879,6.0073,6.0072,6.0071,6.0071,6.007,5.915,5.9218,5.9292,5.9383,5.9439,5.9503,5.9572,5.9615,5.9696,5.9792,5.9807,5.9907,5.9976,6.0094,6.014,6.0217,6.0198,6.0228,6.0235,6.0241,6.0244,6.0063,6.0233,6.0233,6.0232,6.0232,6.0232,0,5.9311,5.9358,5.9441,5.9538,5.9609,5.9603,5.9679,5.9737,5.9826,5.9892,5.9966,6.0073,6.016,6.0215,6.0301,6.0352,6.0353,6.0374,6.0369,6.0378,6.0257,6.023,6.0371,6.0371,6.0371,6.0371,6.0371,6.0371,5.9403,5.9517,5.9542,5.9683,5.9729,5.9829,5.9872,5.993,5.9982,6.0102,6.0175,6.021,6.0271,6.0361,6.044,6.0453,6.0484,6.0505,6.0517,6.0402,6.0387,6.0373,6.0348,6.0512,6.0512,6.0631,6.0632,6.0633]}]]